Weather History for KPIA - February, 2013

Change the Weather History Date:

Thursday, February 14, 2013

  Actual Average Record
Temperature  
Mean Temperature 37 °F 29 °F  
Max Temperature 41 °F 37 °F 67 °F (1954)
Min Temperature 33 °F 21 °F -15 °F (1905)
Degree Days  
Heating Degree Days 28 36  
Month to date heating degree days 479 528  
Since 1 July heating degree days 3766 4049  
Cooling Degree Days 0 0  
Month to date cooling degree days 0 0  
Year to date cooling degree days 0 0  
Moisture  
Dew Point 29 °F    
Average Humidity 73    
Maximum Humidity 82    
Minimum Humidity 64    
Precipitation  
Precipitation T in 0.06 in 1.21 in (1908)
Month to date precipitation 1.34 0.80  
Year to date precipitation 5.17 2.58  
Snow  
Snow T in 0.30 in 4.20 in (2014)
Month to date snowfall 0.9 3.4  
Since 1 July snowfall 4.5 18.5  
Snow Depth 0.00 in    
Sea Level Pressure  
Sea Level Pressure 29.89 in    
Wind  
Wind Speed 11 mph (West)    
Max Wind Speed 23 mph    
Max Gust Speed 35 mph    
Visibility 10 miles    
Events      
T = Trace of Precipitation, MM = Missing Value Source: NWS Daily Summary

Daily Weather History Graph

Daily Weather History Graph

Search for Another Location

Airport or City:

Trip Planner

Search our weather history database for the weather conditions in past years. The results will help you decide how hot, cold, wet, or windy it might be!

Date:

Astronomy

Feb. 14, 2013 Rise Set
Actual Time 6:53 AM CST 5:32 PM CST
Civil Twilight 6:25 AM CST 6:00 PM CST
Nautical Twilight 5:53 AM CST 6:32 PM CST
Astronomical Twilight 5:21 AM CST 7:04 PM CST
Moon 8:53 AM CST (2/14) 10:37 PM CST (2/14)
Length of Visible Light 11h 35m
Length of Day
10h 39m
Waxing Crescent, 22% of the Moon is Illuminated
Feb 14
Waxing Crescent
Feb 17
First Quarter
Feb 25
Full
Mar 4
Last Quarter
Mar 11
New

Hourly Weather History & Observations

Time (CST) Temp. Windchill Dew Point Humidity Pressure Visibility Wind Dir Wind Speed Gust Speed Precip Events Conditions
12:54 AM 36.0 °F 29.6 °F 30.0 °F 79% 29.76 in 10.0 mi SSW 8.1 mph - N/A   Overcast
1:54 AM 37.0 °F 30.4 °F 30.0 °F 76% 29.75 in 10.0 mi South 9.2 mph - N/A   Overcast
2:54 AM 37.0 °F 29.8 °F 30.0 °F 76% 29.73 in 10.0 mi SSW 10.4 mph - N/A   Overcast
3:54 AM 36.0 °F 28.5 °F 30.0 °F 79% 29.73 in 10.0 mi SW 10.4 mph - N/A   Mostly Cloudy
4:54 AM 35.1 °F 27.4 °F 30.0 °F 82% 29.74 in 10.0 mi SW 10.4 mph - N/A   Clear
5:54 AM 34.0 °F 27.2 °F 28.9 °F 82% 29.75 in 10.0 mi SW 8.1 mph - N/A   Clear
6:54 AM 35.1 °F 29.3 °F 30.0 °F 82% 29.77 in 10.0 mi WSW 6.9 mph - N/A   Clear
7:54 AM 37.0 °F 30.4 °F 28.9 °F 73% 29.80 in 10.0 mi West 9.2 mph - N/A   Clear
8:42 AM 37.9 °F 28.9 °F 30.0 °F 73% 29.80 in 10.0 mi West 16.1 mph 23.0 mph N/A   Mostly Cloudy
8:54 AM 37.9 °F 29.2 °F 28.9 °F 70% 29.82 in 10.0 mi West 15.0 mph 25.3 mph N/A   Overcast
9:54 AM 39.0 °F 31.4 °F 28.9 °F 67% 29.84 in 10.0 mi West 12.7 mph 24.2 mph N/A   Overcast
10:54 AM 39.0 °F 29.6 °F 28.0 °F 65% 29.87 in 10.0 mi WNW 18.4 mph 27.6 mph N/A   Overcast
11:54 AM 39.0 °F 29.9 °F 28.0 °F 65% 29.88 in 10.0 mi West 17.3 mph 27.6 mph N/A   Overcast
12:54 PM 39.9 °F 30.8 °F 28.9 °F 65% 29.88 in 10.0 mi West 18.4 mph 27.6 mph N/A   Overcast
1:54 PM 39.9 °F 32.1 °F 28.0 °F 63% 29.90 in 10.0 mi WNW 13.8 mph 25.3 mph N/A   Overcast
2:01 PM 39.9 °F 31.4 °F 28.0 °F 63% 29.89 in 10.0 mi West 16.1 mph 23.0 mph N/A   Overcast
2:13 PM 39.9 °F 30.8 °F 28.0 °F 63% 29.89 in 10.0 mi West 18.4 mph - N/A   Overcast
2:23 PM 39.9 °F 32.1 °F 28.0 °F 63% 29.90 in 10.0 mi WNW 13.8 mph 24.2 mph N/A   Overcast
2:54 PM 39.0 °F 31.0 °F 28.0 °F 65% 29.94 in 10.0 mi West 13.8 mph 21.9 mph N/A   Overcast
3:54 PM 39.0 °F 31.4 °F 28.0 °F 65% 29.96 in 10.0 mi West 12.7 mph - N/A   Overcast
4:54 PM 37.9 °F 29.6 °F 27.0 °F 65% 29.98 in 10.0 mi West 13.8 mph - N/A   Mostly Cloudy
5:54 PM 37.0 °F 32.4 °F 28.0 °F 70% 29.99 in 10.0 mi West 5.8 mph - N/A   Mostly Cloudy
6:54 PM 36.0 °F 32.1 °F 28.0 °F 73% 30.01 in 10.0 mi West 4.6 mph - N/A   Overcast
7:54 PM 36.0 °F 33.3 °F 28.0 °F 73% 30.01 in 10.0 mi WSW 3.5 mph - N/A   Overcast
8:54 PM 36.0 °F 29.6 °F 28.0 °F 73% 30.02 in 10.0 mi West 8.1 mph - N/A   Overcast
9:54 PM 34.0 °F 28.0 °F 28.0 °F 79% 30.03 in 10.0 mi WNW 6.9 mph - N/A   Clear
10:54 PM 33.1 °F 26.1 °F 28.0 °F 82% 30.03 in 10.0 mi WNW 8.1 mph - N/A   Clear
11:39 PM 33.1 °F 26.9 °F 28.9 °F 85% 30.02 in 10.0 mi WNW 6.9 mph - N/A   Mostly Cloudy
11:54 PM 33.1 °F 25.5 °F 28.9 °F 85% 30.04 in 10.0 mi WNW 9.2 mph - N/A   Overcast